Aérodrome :
LOGIN :

S'inscrire | Disclaimer

   EN    FR    IT 

 










Légende :    VFR   VFR Marginal   IFR   IFR Intensif   IFR Très Intensif
Visi : 
Plafond : 
>= 8 km
>= 3000ft
5 à 8 km
1000 à 3000 ft
1500m à 5 km
500 à 1000 ft
800 à 1500m
200 à 500 ft
< 800m
< 200 ft
Symboles :   Orages  Brouillard  Fortes neiges  Fortes précipitations  Vent > 20 kt
SIGMETs :   Divers  Orages  Givrage  Turbulence  Onde Orograph.  Cendres Volcan.






- Altitude de l'aérodrome : 726 ft
- Code IATA : DIJ


LFSD - Dijon

DERNIER METAR :
  • 070400Z AUTO VRB03KT 9000 FEW020 OVC220 11/11 Q1007

METARs EXPIRÉS :
  • 070330Z AUTO 19004KT 9999 FEW005 OVC220 11/11 Q1007
  • 070300Z AUTO VRB03KT 9999 BKN006 BKN014 BKN220 11/11 Q1007
  • 070230Z AUTO 19003KT 9999 BKN005 BKN110 OVC240 11/11 Q1007
  • 070200Z AUTO 17004KT 9999 FEW008 SCT060 OVC110 12/12 Q1007
  • 070130Z AUTO 19005KT 9999 FEW016 BKN110 OVC140 12/12 Q1007
  • 070100Z AUTO 19005KT CAVOK 12/12 Q1007

Prévision TAF périmée.



MET'MAP, la Météo Aéronautique d'un coup d'oeil ! - Copyright ORBIFLY Décembre 2007 - Disclaimer

ORBIFLY MET'MAP TEAM :

Programmation & Développement : Alexandra Zaïnal
Sur une idée originale de : Baudouin d'Aumeries
Assistance à la programmation : Marc-Olivier Méhu
Soutien technique & logistique : Manuel Goepfert

Contact : metmap@orbifly.com




SOURCES & CREDITS :

   NOAA